Voltar ao catálogo

IRIDIUM 33 DEB

AtivoPO
NORAD 38028·DEBRIS·🇺🇸 United States

Lançado Sep 14, 1997 de Baikonur Cosmodrome

Loading…

Próximas Passagens (próximas 24 horas)

TLE

AtualizadoSource: Space-Track

Época: Sep 14, 2026, 16:15 UTC

1 38028U 97051YQ  26257.67749869  .00000675  00000-0  17993-3 0  9991
2 38028  86.3206 240.2160 0024942 288.3233  71.5257 14.46873528694849

Acompanhe IRIDIUM 33 DEB em tempo real com AllMySat

Download on the App Store